Flag for Comoros Weather past 2 weeks in Moroni, Comoros

Now
82 °F

Warm.


Feels Like: 88 °F
Forecast: 77 / 88 °F
Wind: 7 mph from South

Location: Dzaoudzi / Pamanzi Mayotte


UV Index: 7 (High)

Visibility: N/A


Pressure: 29.89 "Hg

Humidity: 74%

Dew point: 73 °F

Location of MoroniLocation

Historic Weather in Moroni

°F

Moroni temperature yesterday

Maximum temperature yesterday: 88 °F (at 9:00 AM)
Minimum temperature yesterday: 77 °F (at 6:00 AM)
Average temperature yesterday: 83 °F

Past Weeks' High & Low Weather Summary

 TemperatureHumidityPressure
High90 °F (Apr 7, 2:00 PM)94% (Apr 6, 1:30 AM)30.01 "Hg (Apr 6, 1:30 AM)
Low75 °F (Apr 6, 6:00 AM)59% (Apr 7, 2:00 PM)29.83 "Hg (Apr 6, 2:00 AM)
Average83 °F74%29.91 "Hg
* Reported Apr 5 9:00 PM — Apr 20 9:00 PM, Moroni, Weather by CustomWeather, © 2014

Note: Actual official high and low records may vary slightly from our data, if they occured in-between our weather recording intervals... More about our weather records

Advertising

Historic Weather Conditions — Data for Previous 24 hours

 ConditionsComfort  
Time TempWeatherWind HumidityBarometerVisibility
9:00 PM
Apr 20
82 °FWarm.8 mph74%29.89 "HgN/A
8:30 PM82 °FWarm.8 mph70%29.89 "HgN/A
8:00 PM82 °FWarm.7 mph70%29.89 "HgN/A
7:30 PM82 °FWarm.8 mph70%29.86 "HgN/A
7:00 PM84 °FWarm.7 mph70%29.86 "HgN/A
6:30 PM84 °FWarm.9 mph70%29.86 "HgN/A
6:00 PM84 °FPassing clouds.8 mph66%29.86 "HgN/A
5:30 PM86 °FPassing clouds.7 mph62%29.86 "HgN/A
5:00 PM86 °FPassing clouds.9 mph62%29.86 "HgN/A
4:30 PM88 °FPassing clouds.12 mph59%29.86 "HgN/A
4:00 PM88 °FPassing clouds.12 mph59%29.83 "HgN/A
3:30 PM88 °FPassing clouds.12 mph59%29.83 "HgN/A
3:00 PM88 °FPassing clouds.13 mph62%29.83 "HgN/A
2:30 PM88 °FPassing clouds.14 mph62%29.86 "HgN/A
2:00 PM88 °FScattered clouds.16 mph66%29.86 "HgN/A
1:30 PM88 °FScattered clouds.14 mph66%29.86 "HgN/A
1:00 PM86 °FScattered clouds.15 mph70%29.89 "HgN/A
12:30 PM88 °FPassing clouds.16 mph62%29.89 "HgN/A
12:00 PM88 °FScattered clouds.15 mph62%29.89 "HgN/A
11:30 AM88 °FPassing clouds.15 mph62%29.92 "HgN/A
11:04 AM88 °FScattered clouds.15 mph66%29.92 "HgN/A
10:30 AM88 °FPassing clouds.16 mph66%29.92 "HgN/A
10:00 AM86 °FPassing clouds.15 mph70%29.92 "HgN/A
9:30 AM86 °FScattered clouds.17 mph70%29.95 "HgN/A
9:00 AM86 °FScattered clouds.16 mph70%29.95 "HgN/A
8:30 AM84 °FPartly sunny.17 mph74%29.95 "HgN/A
8:00 AM82 °FScattered showers. Partly sunny.15 mph74%29.95 "Hg4 mi
7:30 AM81 °FScattered showers. Partly sunny.14 mph89%29.95 "Hg6 mi
7:00 AM81 °FScattered clouds.20 mph79%29.95 "HgN/A
6:30 AM82 °FPartly sunny.17 mph79%29.95 "HgN/A
6:00 AM82 °FPassing clouds.16 mph79%29.92 "HgN/A
5:30 AM82 °FPassing clouds.12 mph79%29.92 "HgN/A
5:10 AM81 °FPassing clouds.10 mph84%29.92 "HgN/A
5:00 AM81 °FPassing clouds.12 mph84%29.92 "HgN/A
4:30 AM81 °FWarm.12 mph84%29.92 "HgN/A
4:00 AM81 °FWarm.10 mph84%29.92 "HgN/A
3:30 AM81 °FPassing clouds.12 mph89%29.92 "HgN/A
3:00 AM81 °FWarm.7 mph84%29.92 "HgN/A
2:30 AM81 °FWarm.7 mph84%29.92 "HgN/A
2:00 AM81 °FWarm.8 mph84%29.95 "HgN/A
1:30 AM82 °FWarm.8 mph79%29.95 "HgN/A
1:00 AM82 °FWarm.8 mph79%29.95 "HgN/A
12:30 AM82 °FWarm.9 mph79%29.98 "HgN/A
12:00 AM82 °FWarm.7 mph79%29.98 "HgN/A
11:30 PM
Apr 19
82 °FWarm.5 mph79%29.98 "HgN/A
11:00 PM82 °FWarm.5 mph79%29.98 "HgN/A
10:30 PM82 °FWarm.6 mph79%29.98 "HgN/A
10:00 PM82 °FWarm.8 mph79%29.98 "HgN/A
Weather by CustomWeather, © 2014

See weather overview